Weather History for KCOS - March, 2013

Change the Weather History Date:

Tuesday, March 5, 2013

  Actual Average Record
Temperature  
Mean Temperature 22 °F 36 °F  
Max Temperature 34 °F 49 °F 70 °F (1925)
Min Temperature 9 °F 23 °F -2 °F (2015)
Degree Days  
Heating Degree Days 43 29  
Month to date heating degree days 149 147  
Since 1 July heating degree days 4493 4710  
Cooling Degree Days 0 0  
Month to date cooling degree days 0 0  
Year to date cooling degree days 0 0  
Moisture  
Dew Point 15 °F    
Average Humidity 72    
Maximum Humidity 88    
Minimum Humidity 56    
Precipitation  
Precipitation T in 0.03 in 0.48 in (1943)
Month to date precipitation 0.08 0.13  
Year to date precipitation 1.16 0.79  
Snow  
Snow T in 0.30 in 5.20 in (1943)
Month to date snowfall 3.0 1.2  
Since 1 July snowfall 23.1 25.2  
Snow Depth 2.00 in    
Sea Level Pressure  
Sea Level Pressure 30.37 in    
Wind  
Wind Speed 5 mph (SSE)    
Max Wind Speed 13 mph    
Max Gust Speed 16 mph    
Visibility 10 miles    
Events Fog    
T = Trace of Precipitation, MM = Missing Value Source: NWS Daily Summary

Daily Weather History Graph

Daily Weather History Graph

Search for Another Location

Airport or City:

Trip Planner

Search our weather history database for the weather conditions in past years. The results will help you decide how hot, cold, wet, or windy it might be!

Date:

Astronomy

Mar. 05, 2013 Rise Set
Actual Time 6:24 AM MST 5:56 PM MST
Civil Twilight 5:58 AM MST 6:22 PM MST
Nautical Twilight 5:27 AM MST 6:53 PM MST
Astronomical Twilight 4:56 AM MST 7:24 PM MST
Moon 1:36 AM MST (3/5) 11:40 AM MST (3/5)
Length of Visible Light 12h 24m
Length of Day
11h 31m
Last Quarter, 40% of the Moon is Illuminated
Mar 5
Last Quarter
Mar 11
New
Mar 19
First Quarter
Mar 27
Full
Apr 2
Last Quarter

Hourly Weather History & Observations

Time (MST) Temp. Windchill Dew Point Humidity Pressure Visibility Wind Dir Wind Speed Gust Speed Precip Events Conditions
12:36 AM 21.2 °F 9.5 °F 15.8 °F 80% 30.19 in 10.0 mi South 11.5 mph - 0.00 in   Overcast
12:54 AM 21.0 °F 9.3 °F 16.0 °F 81% 30.30 in 10.0 mi South 11.5 mph - 0.00 in   Mostly Cloudy
1:54 AM 21.0 °F 13.4 °F 15.1 °F 78% 30.32 in 10.0 mi SSW 5.8 mph - N/A   Mostly Cloudy
2:40 AM 19.4 °F - 15.8 °F 86% 30.19 in 10.0 mi Calm Calm - N/A   Scattered Clouds
2:54 AM 19.0 °F - 15.1 °F 85% 30.36 in 10.0 mi Calm Calm - N/A   Scattered Clouds
3:54 AM 16.0 °F - 12.0 °F 84% 30.38 in 10.0 mi Calm Calm - N/A Fog Patches of Fog
4:54 AM 10.9 °F 2.9 °F 7.0 °F 84% 30.44 in 10.0 mi ENE 4.6 mph - N/A Fog Scattered Clouds
5:54 AM 12.9 °F 6.9 °F 8.1 °F 81% 30.46 in 10.0 mi North 3.5 mph - N/A   Scattered Clouds
6:54 AM 10.9 °F - 7.0 °F 84% 30.49 in 10.0 mi Calm Calm - N/A   Clear
7:54 AM 18.0 °F - 12.9 °F 81% 30.48 in 10.0 mi Calm Calm - N/A   Clear
8:54 AM 21.9 °F - 12.9 °F 68% 30.46 in 10.0 mi Calm Calm - N/A   Clear
9:54 AM 23.0 °F 18.4 °F 12.9 °F 65% 30.44 in 10.0 mi SSE 3.5 mph - N/A   Clear
10:54 AM 23.0 °F 13.9 °F 14.0 °F 68% 30.43 in 10.0 mi ESE 8.1 mph - N/A   Clear
11:54 AM 25.0 °F 16.3 °F 14.0 °F 63% 30.41 in 10.0 mi SSE 8.1 mph - N/A   Clear
12:54 PM 27.0 °F 21.6 °F 17.1 °F 66% 30.39 in 10.0 mi South 4.6 mph - N/A   Clear
1:54 PM 30.9 °F 25.2 °F 19.0 °F 61% 30.34 in 10.0 mi South 5.8 mph - N/A   Clear
2:54 PM 32.0 °F 24.8 °F 19.9 °F 61% 30.33 in 10.0 mi South 8.1 mph - N/A   Clear
3:54 PM 34.0 °F 26.6 °F 19.9 °F 56% 30.34 in 10.0 mi South 9.2 mph - N/A   Clear
4:54 PM 33.1 °F 25.5 °F 19.9 °F 59% 30.37 in 10.0 mi South 9.2 mph - N/A   Clear
5:54 PM 30.9 °F 24.3 °F 19.0 °F 61% 30.37 in 10.0 mi South 6.9 mph - N/A   Clear
6:54 PM 30.9 °F 27.5 °F 18.0 °F 59% 30.38 in 10.0 mi SSE 3.5 mph - N/A   Clear
7:54 PM 30.0 °F 26.5 °F 19.0 °F 64% 30.36 in 10.0 mi SE 3.5 mph - N/A   Clear
8:54 PM 28.0 °F - 19.0 °F 69% 30.35 in 10.0 mi Calm Calm - N/A   Clear
9:54 PM 24.1 °F 19.7 °F 18.0 °F 77% 30.35 in 10.0 mi NNE 3.5 mph - N/A   Scattered Clouds
10:54 PM 24.1 °F 18.2 °F 17.1 °F 75% 30.33 in 10.0 mi North 4.6 mph - N/A   Clear
11:54 PM 23.0 °F 17.0 °F 16.0 °F 74% 30.30 in 10.0 mi North 4.6 mph - N/A   Clear